CZ-4 DEB, 35320

Orbit data source: Space-Track

CZ-4 DEB, 35320 is space debris in SSO originally from a launch on Thu, 14 Oct 1999 UTC launched from the Taiyaun Space Center, China (TSC). Debris objects in space refer to the collection of defunct objects orbiting the Earth. Examples of debris include non-operational satellites, rocket bodies, and fragments generated from explosions, collisions, or faulty payload assembly.

Loading next visibility...
Identifier
35320, 1999-057RY
Orbit
SSO
Country
Flag of CNCN / PRC
Related business
Manufacturer
Unknown
Mission
Spacecraft
Bus & Motor
Unknown
Mass
Unknown
Launch date (UTC)
1999-10-14 (26 years ago)
Launch vehicle
Unknown
Launch site
Taiyaun Space Center, China (TSC)
Object type
Payload
Rocket body
Debris
Shape & HBR
Unknown shape, 0.1 m
Radar Cross Section
Small (<0.1 m²)

Expand to show TLE details & history
Last TLE update: 1 week ago

TLE from 1 week ago
0 CZ-4 DEB
1 35320U 99057RY  25294.84558943  .00006572  00000-0  85587-3 0  9997
2 35320  98.2902 306.7921 0000852 116.2862 243.8437 14.80959031 10231
Epoch: 2025-10-21T20:17Z
TLE epoch observation values (Epoch: 2025-10-21T20:17:38.926Z)
Latitude
-0.00003°
Longitude
-28.14779°
Altitude
629.573 km
Speed
7.544 km/s
True Right ascension
20h 27m 10s
True Declination
0° 00' 00"
Sunlit
Object was in daylight at epoch
Visualization orbit readout
Latitude
Unknown
Longitude
Unknown
Altitude
Unknown
Speed
Unknown
Apparent Right ascension
Unknown
Apparent Declination
Unknown
Sunlit
N/A
Visualization observer readout
Local Sidereal Time
13:24:10
Azimuth
Unknown
Elevation
Unknown
Doppler factor
Unknown
Orbital elements
Apogee altitude
623.953 km
Perigee altitude
622.76 km
Semi-major axis
7,001.493 km
Eccentricity
0.00009
Inclination
98.2902°
RAAN
306.7921°
Arg. of periapsis
116.2862°
True anomaly
243.83494°
Mean anomaly
243.8437°
Eccentric anomaly
243.83932°
Mean motion
3.70474 °/min
Orbital period
97.17 mins
BSTAR
0.00085587
Loading maneuver chart data...
Computing Atmospheric mass density...
Loading historical data...
Loading historical data...
Loading historical data...
Loading historical data...
Loading historical data...
Loading historical data...
Loading historical data...

Documentation

Showing up to 5 results
|